TimeEET,TemperatureF,Dew PointF,Humidity,Sea Level PressureIn,VisibilityMPH,Wind Direction,Wind SpeedMPH,Gust SpeedMPH,PrecipitationIn,Events,Conditions,WindDirDegrees,DateUTC
12:20 AM,59.0,48.2,67,30.01,-9999.0,Variable,2.3,-,N/A,,Clear,0,2012-11-18 22:20:00
12:50 AM,59.0,48.2,67,30.01,-9999.0,North,4.6,-,N/A,,Clear,360,2012-11-18 22:50:00
1:20 AM,57.2,46.4,67,30.01,-9999.0,NNE,4.6,-,N/A,,Clear,20,2012-11-18 23:20:00
1:50 AM,55.4,46.4,72,30.01,-9999.0,NNE,5.8,-,N/A,,Clear,20,2012-11-18 23:50:00
2:20 AM,55.4,48.2,77,30.01,-9999.0,North,4.6,-,N/A,,Clear,10,2012-11-19 00:20:00
2:50 AM,55.4,46.4,72,30.01,-9999.0,NNE,5.8,-,N/A,,Clear,30,2012-11-19 00:50:00
3:20 AM,53.6,46.4,77,30.01,-9999.0,Calm,Calm,-,N/A,,Clear,0,2012-11-19 01:20:00
3:50 AM,50.0,44.6,82,30.01,-9999.0,SW,4.6,-,N/A,,Clear,220,2012-11-19 01:50:00
4:20 AM,50.0,44.6,82,30.01,-9999.0,Calm,Calm,-,N/A,,Clear,0,2012-11-19 02:20:00
4:50 AM,50.0,46.4,87,30.01,-9999.0,Calm,Calm,-,N/A,,Clear,0,2012-11-19 02:50:00
5:20 AM,50.0,46.4,87,30.01,-9999.0,Calm,Calm,-,N/A,,Clear,0,2012-11-19 03:20:00
5:50 AM,51.8,46.4,82,30.01,-9999.0,Calm,Calm,-,N/A,,Clear,0,2012-11-19 03:50:00
6:20 AM,50.0,44.6,82,30.04,-9999.0,Calm,Calm,-,N/A,,Clear,0,2012-11-19 04:20:00
6:50 AM,53.6,46.4,77,30.04,-9999.0,North,4.6,-,N/A,,Clear,350,2012-11-19 04:50:00
7:20 AM,55.4,48.2,77,30.04,-9999.0,Calm,Calm,-,N/A,,Clear,0,2012-11-19 05:20:00
7:50 AM,59.0,48.2,67,30.04,-9999.0,Calm,Calm,-,N/A,,Clear,0,2012-11-19 05:50:00
8:20 AM,60.8,46.4,59,30.04,-9999.0,Calm,Calm,-,N/A,,Clear,0,2012-11-19 06:20:00
8:50 AM,64.4,48.2,56,30.04,-9999.0,Calm,Calm,-,N/A,,Clear,0,2012-11-19 06:50:00
9:20 AM,64.4,48.2,56,30.04,-9999.0,Variable,2.3,-,N/A,,Clear,0,2012-11-19 07:20:00
9:50 AM,68.0,48.2,49,30.04,-9999.0,Variable,1.2,-,N/A,,Clear,0,2012-11-19 07:50:00
10:20 AM,68.0,46.4,46,30.04,-9999.0,Variable,2.3,-,N/A,,Clear,0,2012-11-19 08:20:00
10:50 AM,71.6,44.6,38,30.01,-9999.0,Calm,Calm,-,N/A,,Clear,0,2012-11-19 08:50:00
11:20 AM,71.6,42.8,35,30.01,-9999.0,Variable,2.3,-,N/A,,Clear,0,2012-11-19 09:20:00
11:50 AM,71.6,42.8,35,30.01,-9999.0,SW,4.6,-,N/A,,Clear,220,2012-11-19 09:50:00
12:20 PM,71.6,44.6,38,29.98,-9999.0,Variable,4.6,-,N/A,,Clear,0,2012-11-19 10:20:00
12:50 PM,73.4,41.0,31,29.98,-9999.0,SW,4.6,-,N/A,,Clear,230,2012-11-19 10:50:00
1:20 PM,73.4,41.0,31,29.98,-9999.0,SSW,4.6,-,N/A,,Clear,210,2012-11-19 11:20:00
1:50 PM,73.4,41.0,31,29.98,-9999.0,SW,3.5,-,N/A,,Clear,220,2012-11-19 11:50:00
2:20 PM,73.4,41.0,31,29.98,-9999.0,SSW,4.6,-,N/A,,Clear,210,2012-11-19 12:20:00
2:50 PM,73.4,41.0,31,29.98,-9999.0,SW,5.8,-,N/A,,Clear,220,2012-11-19 12:50:00
3:20 PM,71.6,44.6,38,29.98,-9999.0,SSW,5.8,-,N/A,,Clear,210,2012-11-19 13:20:00
3:50 PM,69.8,48.2,46,30.01,-9999.0,SSW,5.8,-,N/A,,Clear,200,2012-11-19 13:50:00
4:20 PM,66.2,48.2,52,30.01,-9999.0,SSW,4.6,-,N/A,,Clear,200,2012-11-19 14:20:00
4:50 PM,62.6,48.2,59,30.04,-9999.0,SW,6.9,-,N/A,,Clear,220,2012-11-19 14:50:00
5:20 PM,62.6,50.0,63,30.04,-9999.0,West,5.8,-,N/A,,Clear,260,2012-11-19 15:20:00
5:50 PM,60.8,51.8,72,30.04,-9999.0,Variable,2.3,-,N/A,,Clear,0,2012-11-19 15:50:00
6:20 PM,60.8,51.8,72,30.04,-9999.0,Variable,2.3,-,N/A,,Clear,0,2012-11-19 16:20:00
6:50 PM,59.0,50.0,72,30.06,-9999.0,WSW,1.2,-,N/A,,Clear,250,2012-11-19 16:50:00
7:20 PM,60.8,51.8,72,30.06,-9999.0,Variable,2.3,-,N/A,,Clear,0,2012-11-19 17:20:00
7:50 PM,57.2,50.0,77,30.06,-9999.0,Variable,1.2,-,N/A,,Clear,0,2012-11-19 17:50:00
8:20 PM,57.2,50.0,77,30.06,-9999.0,NNE,2.3,-,N/A,,Clear,30,2012-11-19 18:20:00
8:50 PM,55.4,50.0,82,30.06,-9999.0,Variable,1.2,-,N/A,,Clear,0,2012-11-19 18:50:00
9:20 PM,55.4,50.0,82,30.06,-9999.0,North,2.3,-,N/A,,Clear,350,2012-11-19 19:20:00
9:50 PM,55.4,50.0,82,30.06,-9999.0,NE,3.5,-,N/A,,Clear,50,2012-11-19 19:50:00
10:20 PM,55.4,50.0,82,30.06,-9999.0,Calm,Calm,-,N/A,,Clear,0,2012-11-19 20:20:00
10:50 PM,53.6,50.0,88,30.06,-9999.0,WNW,2.3,-,N/A,,Clear,290,2012-11-19 20:50:00
11:20 PM,51.8,48.2,88,30.06,-9999.0,ESE,2.3,-,N/A,,Clear,120,2012-11-19 21:20:00
11:50 PM,51.8,50.0,94,30.06,-9999.0,Calm,Calm,-,N/A,,Clear,0,2012-11-19 21:50:00